Starlink 3268

operational
NORAD ID: 50190 Int'l Des: 2021-125 Owner: SPXS Country: US Constellation: starlink
LEOCIRCULAR

Über Starlink 3268

Beschreibung wird geladen...

Live-Position

3D-Globus wird geladen...

Nächste Überflüge

Höhenverlauf

Altitude vs Time

uPlot chart will show altitude changes over time

Zweizeiliger Elementsatz

1 50190U 21125AL 25308.77486963 -.00001978 00000-0 -10619-3 0 9991
2 50190 53.2159 79.8826 0001590 79.6439 280.4732 15.08842293217878
Epoch: 4. Nov. 2025 • Age: 7 hours

Aktueller Status

Höhe 539.9 km
Geschwindigkeit 7.59 km/s
Subsatellitenpunkt 8.15°N, 177.68°W
Startdatum 18. Dez. 2021
Alter 3.8 years
Typ internet

Technische Details

Klassifizierung Payload
Masse 290.00 kg
Trockenmasse 270.00 kg
Gesamtmasse 290.00 kg
Länge 0.20 m
Durchmesser 2.80 m
Spannweite 9.00 m
Form Box + pan
Hersteller SPXS
Bus-Typ Starlink
Phasenstatus In Orbit
Besitzer/Staat SPXS/US

Große Konstellationen

Loading constellations...